EDT,Max TemperatureF,Mean TemperatureF,Min TemperatureF,Max Dew PointF,MeanDew PointF,Min DewpointF,Max Humidity, Mean Humidity, Min Humidity, Max Sea Level PressureIn, Mean Sea Level PressureIn, Min Sea Level PressureIn, Max VisibilityMiles, Mean VisibilityMiles, Min VisibilityMiles, Max Wind SpeedMPH, Mean Wind SpeedMPH, Max Gust SpeedMPH,PrecipitationIn, CloudCover, Events, WindDirDegrees
2013-10-1,68,60,53,55,53,50,100,79,56,30.08,30.04,30.01,10,9,3,9,2,,0.00,4,,248
2013-10-2,71,63,55,59,54,48,94,79,49,30.13,30.06,30.01,10,10,7,9,5,20,0.00,3,,259
2013-10-3,71,58,46,63,55,45,100,84,56,30.16,30.12,30.06,10,8,2,8,2,,0.00,3,Rain,197
2013-10-4,71,66,60,64,62,61,100,93,73,30.12,30.08,30.05,10,6,0,9,3,,0.00,8,Fog-Rain-Thunderstorm,233
2013-10-5,75,67,59,64,61,59,100,95,65,30.13,30.09,30.04,10,4,0,8,2,,0.00,7,Fog-Rain-Thunderstorm,149
2013-10-6,77,68,59,64,62,59,100,83,57,30.04,29.94,29.83,10,7,0,18,5,30,0.00,5,Fog-Rain-Thunderstorm,183
2013-10-7,68,56,44,59,48,37,100,82,58,30.08,29.83,29.69,10,9,4,15,11,31,0.00,7,Rain,230
2013-10-8,59,50,41,45,41,37,100,80,48,30.35,30.26,30.09,10,8,0,7,2,,0.00,3,Fog-Rain,30
2013-10-9,62,52,41,43,38,34,87,67,39,30.40,30.34,30.30,10,10,5,7,3,,0.00,0,,110
2013-10-10,64,50,37,41,36,32,93,60,30,30.30,30.23,30.16,10,6,1,8,3,,0.00,0,,86
2013-10-11,64,55,46,41,38,34,81,57,34,30.16,30.14,30.13,10,7,2,9,5,,0.00,5,,78
2013-10-12,71,58,44,46,39,32,76,53,31,30.24,30.18,30.13,10,10,10,10,5,,0.00,0,,102
2013-10-13,60,56,51,55,50,37,100,83,48,30.32,30.28,30.22,10,8,0,10,7,17,0.00,7,Fog-Rain,189
2013-10-14,55,50,44,54,49,45,100,94,82,30.35,30.31,30.28,10,6,0,8,3,,0.00,8,Fog-Rain,267
2013-10-15,57,52,46,54,50,46,100,95,82,30.29,30.17,30.02,10,6,0,10,3,,0.00,6,Fog,153
2013-10-16,55,53,51,55,51,46,100,91,72,30.01,29.92,29.84,10,9,2,13,9,20,0.00,6,Rain,198
2013-10-17,59,52,44,50,45,43,100,86,55,29.90,29.83,29.69,10,9,1,10,5,21,0.00,6,Rain-Thunderstorm,223
2013-10-18,53,48,42,43,39,36,100,78,51,29.94,29.88,29.77,10,10,5,10,7,22,0.00,6,,249
2013-10-19,51,44,37,43,38,36,100,80,58,29.93,29.81,29.66,10,10,5,15,7,25,0.00,6,Rain-Thunderstorm,213
2013-10-20,50,42,35,37,35,34,100,80,58,29.99,29.90,29.79,10,10,7,10,6,21,0.00,7,Rain-Thunderstorm,242
2013-10-21,60,50,41,36,33,32,76,55,34,30.01,29.93,29.79,10,10,10,17,9,25,0.00,1,,211
2013-10-22,53,44,35,45,34,28,100,78,47,29.84,29.81,29.76,10,10,5,13,7,24,0.00,8,Rain,256
2013-10-23,37,34,32,34,32,28,100,93,75,29.80,29.73,29.67,10,9,1,9,2,,0.00,8,Rain-Snow,263
2013-10-24,35,32,30,32,31,30,100,94,81,29.99,29.87,29.78,10,8,1,13,2,22,0.00,8,Snow,251
2013-10-25,39,36,32,36,32,28,100,95,75,30.17,30.11,29.99,10,8,0,9,2,18,0.00,8,Snow,258
2013-10-26,41,36,32,32,28,25,93,74,57,30.10,29.90,29.79,10,10,5,17,10,32,0.00,6,Rain-Snow,229
2013-10-27,37,35,33,34,33,30,100,90,81,30.04,29.94,29.82,10,10,3,9,6,,0.00,7,Rain-Snow,252
2013-10-28,42,37,32,36,31,23,93,81,65,30.32,30.18,30.04,10,10,10,9,5,,0.00,5,,307
2013-10-29,46,39,32,32,28,25,87,67,50,30.37,30.32,30.27,10,10,10,6,4,,0.00,6,Rain,46
2013-10-30,59,47,35,36,32,30,81,60,36,30.25,30.18,30.11,10,10,10,8,3,,0.00,2,,199
2013-10-31,60,52,44,55,50,34,100,90,62,30.10,29.84,29.48,10,8,0,21,9,29,0.00,7,Fog-Rain,204